Location: Mat�lon
(46.2791°N, 7.1028°E)
Time: 10:49:37
(UTC+00:00)

NOSS 3-2 (C) - Pass Details

Date: 18 September 2020
Orbit: 795 x 1418 km, 63.4° (Epoch: 02 October)

Event Time Altitude Azimuth Distance (km) Brightness Sun altitude
Rises 20:34:36 0° 319° (NW) 3,988 7.9 -29.3°
Reaches altitude 10° 20:37:11 10° 316° (NW) 3,108 7.0 -29.7°
Maximum altitude 20:44:41 65° 237° (WSW) 1,415 4.2 -30.6°
Enters shadow 20:46:12 56° 192° (SSW) 1,544 4.2 -30.8°
